Location: Pompeys Pillar
(45.9913°N, 107.9528°W)
Time: 04:11:17
(UTC+00:00)

Tiros 1 - Pass Details

Date: 02 June 2022
Orbit: 629 x 663 km, 48.4° (Epoch: 30 June)

Event Time Altitude Azimuth Distance (km) Brightness Sun altitude
Rises 12:00:36 0° 283° (WNW) 2,932 10.1 4.6°
Reaches altitude 10° 12:03:39 10° 263° (W) 2,026 9.1 5.1°
Maximum altitude 12:06:33 17° 224° (SW) 1,638 8.7 5.5°
Drops below altitude 10° 12:09:29 10° 185° (S) 2,032 9.4 6.0°
Sets 12:12:33 0° 165° (SSE) 2,945 10.4 6.5°
